Meerawa, Australia

12:16 PM AEST on September 26, 2017 (GMT +1000)
Meerawa

Weather History for 94287 - November, 2012

Change the Weather History Date:

Tuesday, November 13, 2012

  Actual Average Record
Temperature  
Mean Temperature 77 °F -  
Max Temperature 84 °F 87 °F - ()
Min Temperature 70 °F 73 °F - ()
Cooling Degree Days 12    
Growing Degree Days 27 (Base 50)    
Moisture  
Dew Point 66 °F    
Average Humidity 69    
Maximum Humidity 94    
Minimum Humidity 41    
Precipitation  
Precipitation 0.12 in 0.18 in - ()
Sea Level Pressure  
Sea Level Pressure 29.96 in    
Wind  
Wind Speed 13 mph ()    
Max Wind Speed 24 mph    
Max Gust Speed 33 mph    
Visibility 6.6 miles    
Events Rain    
T = Trace of Precipitation, MM = Missing Value Source: Averaged Metar Reports

Daily Weather History Graph

Daily Weather History Graph

Search for Another Location

Airport or City:

Trip Planner

Search our weather history database for the weather conditions in past years. The results will help you decide how hot, cold, wet, or windy it might be!

Date:

Astronomy

Nov. 13, 2012 Rise Set
Actual Time 5:34 AM AEST 6:27 PM AEST
Civil Twilight 5:11 AM AEST 6:50 PM AEST
Nautical Twilight 4:44 AM AEST 7:17 PM AEST
Astronomical Twilight 4:17 AM AEST 7:45 PM AEST
Moon 4:36 AM AEST (11/13) 5:45 PM AEST (11/13)
Length of Visible Light 13h 38m
Length of Day
12h 52m
Waning Crescent, 1% of the Moon is Illuminated
Nov 13
Waning Crescent
Nov 14
New
Nov 21
First Quarter
Nov 29
Full
Dec 7
Last Quarter

Hourly Weather History & Observations

Time (AEST) Temp. Heat Index Dew Point Humidity Pressure Visibility Wind Dir Wind Speed Gust Speed Precip Events Conditions
12:00 AM 75 °F - 67 °F 68% 30.00 in - SSE 10.4 mph - -   Overcast
12:00 AM 75.2 °F - 66.2 °F 73% 29.98 in 6.2 mi SSE 10.4 mph - N/A   Mostly Cloudy
12:30 AM 75.2 °F - 66.2 °F 73% 29.98 in 6.2 mi South 9.2 mph - N/A Rain Light Rain Showers
1:00 AM 75 °F - 67 °F 69% 29.98 in - SSE 10.4 mph - -  
1:00 AM 75.2 °F - 66.2 °F 73% 29.98 in 6.2 mi SSE 10.4 mph - N/A Rain Light Rain Showers
1:30 AM 75.2 °F - 68.0 °F 78% 29.95 in 6.2 mi SSE 10.4 mph - N/A   Mostly Cloudy
2:00 AM 75.2 °F - 66.2 °F 73% 29.95 in 6.2 mi SSE 10.4 mph - N/A   Mostly Cloudy
2:30 AM 75.2 °F - 66.2 °F 73% 29.95 in 6.2 mi South 9.2 mph - N/A   Mostly Cloudy
3:00 AM 75 °F - 65 °F 65% 29.95 in - SSE 10.4 mph - -   Overcast
3:00 AM 75.2 °F - 66.2 °F 73% 29.95 in 6.2 mi SSE 10.4 mph - N/A   Scattered Clouds
3:30 AM 75.2 °F - 66.2 °F 73% 29.92 in 6.2 mi South 11.5 mph - N/A   Scattered Clouds
4:00 AM 74 °F - 65 °F 65% 29.95 in - South 11.5 mph - -  
4:00 AM 75.2 °F - 64.4 °F 69% 29.95 in 6.2 mi South 11.5 mph - N/A   Scattered Clouds
4:30 AM 73.4 °F - 64.4 °F 73% 29.95 in 6.2 mi South 12.7 mph - N/A   Scattered Clouds
5:00 AM 73.4 °F - 64.4 °F 73% 29.95 in 6.2 mi SSE 11.5 mph - N/A   Partly Cloudy
5:30 AM 73.4 °F - 62.6 °F 69% 29.95 in 6.2 mi South 11.5 mph - N/A   Scattered Clouds
6:00 AM 74 °F - 62 °F 59% 29.96 in 16 mi South 11.5 mph - -   Mostly Cloudy
6:00 AM 73.4 °F - 62.6 °F 69% 29.95 in 6.2 mi South 11.5 mph - N/A   Mostly Cloudy
6:30 AM 71.6 °F - 66.2 °F 83% 29.98 in 6.2 mi SE 12.7 mph - N/A Rain Light Rain Showers
7:00 AM 73 °F - 67 °F 76% 29.99 in - SSE 10.4 mph - -  
7:00 AM 73.4 °F - 68.0 °F 83% 29.98 in 6.2 mi SSE 10.4 mph - N/A   Scattered Clouds
7:30 AM 71.6 °F - 68.0 °F 88% 29.98 in 6.2 mi South 15.0 mph - N/A   Mostly Cloudy
8:00 AM 75.2 °F - 68.0 °F 78% 29.98 in 6.2 mi South 13.8 mph - N/A   Scattered Clouds
8:30 AM 75.2 °F - 71.6 °F 89% 30.01 in 6.2 mi SSE 17.3 mph - N/A   Mostly Cloudy
8:39 AM 77.0 °F - 69.8 °F 78% 30.01 in 6.2 mi SE 15.0 mph - N/A   Mostly Cloudy
9:00 AM 78 °F - 68 °F 63% 30.00 in 16 mi SE 16.1 mph - -   Mostly Cloudy
9:00 AM 78.8 °F - 68.0 °F 69% 29.98 in 6.2 mi SE 16.1 mph - N/A   Scattered Clouds
9:26 AM 78.8 °F - 68.0 °F 69% 29.98 in 3.7 mi SE 17.3 mph - N/A Rain Light Rain Showers
9:30 AM 78.8 °F - 66.2 °F 65% 29.98 in 3.1 mi SE 17.3 mph - N/A Rain Light Rain Showers
9:35 AM 73.4 °F - 69.8 °F 88% 30.01 in 3.1 mi SE 19.6 mph 32.2 mph N/A Rain Light Rain Showers
9:51 AM 75.2 °F - 69.8 °F 83% 30.01 in 6.2 mi ESE 19.6 mph - N/A Rain Light Rain Showers
10:00 AM 76 °F - 70 °F 75% 30.01 in - SE 21.9 mph - -  
10:00 AM 75.2 °F - 69.8 °F 83% 30.01 in 5.0 mi SE 21.9 mph - N/A   Mostly Cloudy
10:30 AM 80.6 °F 83.2 °F 68.0 °F 65% 29.98 in 6.2 mi SSE 17.3 mph - N/A   Mostly Cloudy
11:00 AM 80.6 °F 82.7 °F 66.2 °F 61% 29.98 in 3.7 mi SE 19.6 mph - N/A   Mostly Cloudy
11:19 AM 77.0 °F - 68.0 °F 74% 29.98 in 6.2 mi SSE 20.7 mph - N/A   Mostly Cloudy
11:30 AM 77.0 °F - 66.2 °F 69% 29.98 in 6.2 mi SSE 17.3 mph - N/A   Mostly Cloudy
12:00 PM 82 °F - 65 °F 48% 29.98 in 16 mi SSE 15.0 mph - -   Partly Cloudy
12:00 PM 82.4 °F 84.6 °F 66.2 °F 58% 29.98 in 6.2 mi SSE 15.0 mph - N/A   Mostly Cloudy
12:30 PM 82.4 °F 83.9 °F 64.4 °F 54% 29.95 in 6.2 mi SSE 20.7 mph - N/A   Mostly Cloudy
12:49 PM 82.4 °F 83.9 °F 64.4 °F 54% 29.95 in 6.2 mi SE 20.7 mph 32.2 mph N/A   Mostly Cloudy
1:00 PM 82 °F - 62 °F 42% 29.95 in - SE 24.2 mph - -  
1:00 PM 82.4 °F 83.4 °F 62.6 °F 51% 29.95 in 6.2 mi SE 24.2 mph - N/A   Mostly Cloudy
1:30 PM 80.6 °F 82.7 °F 66.2 °F 61% 29.92 in 6.2 mi SE 19.6 mph - N/A Rain Light Rain Showers
2:00 PM 84.2 °F 85.0 °F 62.6 °F 48% 29.92 in 6.2 mi SE 21.9 mph - N/A   Mostly Cloudy
2:02 PM 82.4 °F 83.9 °F 64.4 °F 54% 29.92 in 6.2 mi SE 20.7 mph 33.4 mph N/A   Mostly Cloudy
2:30 PM 82.4 °F 83.4 °F 62.6 °F 51% 29.92 in 6.2 mi SE 21.9 mph - N/A   Mostly Cloudy
3:00 PM 82 °F - 62 °F 41% 29.92 in 16 mi SE 21.9 mph - -   Partly Cloudy
3:00 PM 82.4 °F 83.4 °F 62.6 °F 51% 29.92 in 6.2 mi SE 21.9 mph - N/A   Scattered Clouds
3:30 PM 82.4 °F 83.4 °F 62.6 °F 51% 29.92 in 6.2 mi SE 21.9 mph - N/A   Mostly Cloudy
4:00 PM 81 °F - 63 °F 44% 29.92 in - SE 21.9 mph - -  
4:00 PM 80.6 °F 81.8 °F 62.6 °F 54% 29.89 in 6.2 mi SE 21.9 mph - N/A   Mostly Cloudy
4:30 PM 82.4 °F 83.4 °F 62.6 °F 51% 29.92 in 6.2 mi SE 18.4 mph - N/A   Scattered Clouds
5:00 PM 80.6 °F 82.3 °F 64.4 °F 58% 29.92 in 6.2 mi SE 20.7 mph - N/A   Scattered Clouds
5:30 PM 78.8 °F - 66.2 °F 65% 29.92 in 6.2 mi SE 18.4 mph - N/A   Scattered Clouds
6:00 PM 78 °F - 65 °F 56% 29.94 in - SSE 17.3 mph - -  
6:00 PM 78.8 °F - 64.4 °F 61% 29.95 in 6.2 mi SSE 17.3 mph - N/A   Scattered Clouds
6:16 PM 75.2 °F - 68.0 °F 78% 29.95 in 6.2 mi SE 17.3 mph 28.8 mph N/A   Scattered Clouds
6:30 PM 75.2 °F - 66.2 °F 73% 29.95 in 6.2 mi SSE 15.0 mph - N/A   Scattered Clouds
7:00 PM 77.0 °F - 66.2 °F 69% 29.95 in 6.2 mi SSE 11.5 mph - N/A   Scattered Clouds
7:30 PM 71.6 °F - 68.0 °F 88% 29.95 in 6.2 mi SSE 13.8 mph - N/A   Mostly Cloudy
8:00 PM 73.4 °F - 68.0 °F 83% 29.95 in 6.2 mi South 9.2 mph - N/A   Mostly Cloudy
8:30 PM 73.4 °F - 68.0 °F 83% 29.98 in 6.2 mi South 10.4 mph - N/A   Mostly Cloudy
9:00 PM 73 °F - 69 °F 84% 29.98 in - SSE 8.1 mph - -   Overcast
9:00 PM 73.4 °F - 69.8 °F 88% 29.98 in 6.2 mi SSE 8.1 mph - N/A   Scattered Clouds
9:30 PM 73.4 °F - 68.0 °F 83% 29.98 in 6.2 mi SSE 9.2 mph - N/A   Scattered Clouds
10:00 PM 73 °F - 68 °F 80% 29.99 in - South 10.4 mph - -  
10:00 PM 73.4 °F - 68.0 °F 83% 29.98 in - South 10.4 mph - N/A   Unknown
10:30 PM 73.4 °F - 68.0 °F 83% 29.98 in 6.2 mi South 9.2 mph - N/A Rain Light Rain Showers
11:00 PM 73.4 °F - 68.0 °F 83% 29.98 in 3.1 mi South 10.4 mph - N/A Rain Light Rain Showers
11:30 PM 71.6 °F - 69.8 °F 94% 29.98 in 6.2 mi SE 9.2 mph - N/A Rain Light Rain Showers